Meteo pe oră la Abadia

Astăzi, 13 Iunie, Duminică

Timp Temperatura Precipitaţii Vânt Presiune Umiditate
00:00 +20°C° 0 mm 1 m/s 723 mmHg 78%
01:00 +19°C° 0.1 mm 1 m/s 723 mmHg 78%
02:00 +19°C° 0.1 mm 1 m/s 723 mmHg 79%
03:00 +19°C° 0.1 mm 1 m/s 723 mmHg 79%
04:00 +19°C° 0 mm 1 m/s 724 mmHg 79%
05:00 +20°C° 0 mm 1 m/s 724 mmHg 78%
06:00 +20°C° 0 mm 1 m/s 724 mmHg 78%
07:00 +23°C° 0 mm 1 m/s 724 mmHg 67%
08:00 +25°C° 0 mm 1 m/s 725 mmHg 56%
09:00 +28°C° 0 mm 2 m/s 725 mmHg 44%
10:00 +29°C° 0 mm 2 m/s 725 mmHg 39%
11:00 +31°C° 0 mm 3 m/s 724 mmHg 34%
12:00 +33°C° 0 mm 3 m/s 724 mmHg 31%
13:00 +33°C° 0 mm 3 m/s 724 mmHg 29%
14:00 +34°C° 0 mm 4 m/s 724 mmHg 27%
15:00 +34°C° 0 mm 4 m/s 723 mmHg 25%
16:00 +33°C° 0.1 mm 3 m/s 723 mmHg 28%
17:00 +31°C° 0.1 mm 2 m/s 723 mmHg 32%
18:00 +30°C° 0.1 mm 1 m/s 723 mmHg 36%
19:00 +28°C° 0 mm 1 m/s 723 mmHg 41%
20:00 +26°C° 0 mm 2 m/s 723 mmHg 46%
21:00 +24°C° 0 mm 2 m/s 723 mmHg 51%
22:00 +23°C° 0 mm 2 m/s 723 mmHg 53%
23:00 +21°C° 0 mm 2 m/s 723 mmHg 56%

Mâine, 14 Iunie, Luni

Timp Temperatura Precipitaţii Vânt Presiune Umiditate
00:00 +20°C° 0 mm 2 m/s 723 mmHg 59%
01:00 +20°C° 0 mm 2 m/s 723 mmHg 61%
02:00 +20°C° 0 mm 2 m/s 723 mmHg 62%
03:00 +19°C° 0 mm 2 m/s 723 mmHg 64%
04:00 +21°C° 0 mm 1 m/s 723 mmHg 63%
05:00 +21°C° 0 mm 1 m/s 724 mmHg 62%
06:00 +21°C° 0 mm 1 m/s 724 mmHg 61%
07:00 +24°C° 0 mm 1 m/s 724 mmHg 54%
08:00 +26°C° 0 mm 1 m/s 724 mmHg 47%
09:00 +28°C° 0 mm 2 m/s 725 mmHg 39%
10:00 +30°C° 0 mm 2 m/s 725 mmHg 35%
11:00 +31°C° 0 mm 2 m/s 724 mmHg 31%
12:00 +34°C° 0 mm 3 m/s 724 mmHg 27%
13:00 +34°C° 0 mm 3 m/s 724 mmHg 25%
14:00 +35°C° 0 mm 3 m/s 723 mmHg 22%
15:00 +36°C° 0 mm 3 m/s 723 mmHg 20%
16:00 +35°C° 0 mm 3 m/s 722 mmHg 22%
17:00 +34°C° 0 mm 3 m/s 722 mmHg 24%
18:00 +32°C° 0 mm 2 m/s 722 mmHg 26%
19:00 +29°C° 0 mm 2 m/s 722 mmHg 33%
20:00 +26°C° 0 mm 2 m/s 723 mmHg 41%
21:00 +24°C° 0 mm 3 m/s 723 mmHg 48%
22:00 +22°C° 0 mm 3 m/s 723 mmHg 51%
23:00 +21°C° 0 mm 3 m/s 723 mmHg 55%

Poimâine, 15 Iunie, Marţi

Timp Temperatura Precipitaţii Vânt Presiune Umiditate
00:00 +20°C° 0 mm 3 m/s 722 mmHg 59%
01:00 +20°C° 0 mm 2 m/s 722 mmHg 59%
02:00 +20°C° 0 mm 2 m/s 722 mmHg 59%
03:00 +20°C° 0 mm 2 m/s 721 mmHg 58%
04:00 +21°C° 0 mm 2 m/s 722 mmHg 57%
05:00 +21°C° 0 mm 2 m/s 722 mmHg 55%
06:00 +21°C° 0 mm 2 m/s 722 mmHg 54%
07:00 +25°C° 0 mm 2 m/s 722 mmHg 46%
08:00 +28°C° 0 mm 2 m/s 722 mmHg 39%
09:00 +31°C° 0 mm 2 m/s 722 mmHg 32%
10:00 +34°C° 0 mm 2 m/s 722 mmHg 28%
11:00 +35°C° 0 mm 3 m/s 722 mmHg 25%
12:00 +36°C° 0 mm 3 m/s 721 mmHg 22%
13:00 +37°C° 0 mm 3 m/s 721 mmHg 21%
14:00 +37°C° 0 mm 3 m/s 720 mmHg 21%
15:00 +37°C° 0 mm 3 m/s 720 mmHg 20%
16:00 +36°C° 0 mm 3 m/s 720 mmHg 25%
17:00 +34°C° 0 mm 3 m/s 719 mmHg 30%
18:00 +31°C° 0 mm 3 m/s 719 mmHg 35%
19:00 +29°C° 0.1 mm 3 m/s 719 mmHg 41%
20:00 +27°C° 0.1 mm 3 m/s 719 mmHg 47%
21:00 +25°C° 0.1 mm 3 m/s 720 mmHg 54%
22:00 +24°C° 0 mm 2 m/s 719 mmHg 57%
23:00 +23°C° 0 mm 2 m/s 719 mmHg 59%

16 Iunie, Miercuri

Timp Temperatura Precipitaţii Vânt Presiune Umiditate
00:00 +22°C° 0 mm 1 m/s 719 mmHg 62%
01:00 +22°C° 0 mm 1 m/s 719 mmHg 63%
02:00 +21°C° 0 mm 1 m/s 719 mmHg 63%
03:00 +21°C° 0 mm 1 m/s 719 mmHg 64%
04:00 +21°C° 0 mm 1 m/s 719 mmHg 65%
05:00 +21°C° 0 mm 1 m/s 719 mmHg 67%
06:00 +21°C° 0 mm 1 m/s 719 mmHg 68%
07:00 +23°C° 0 mm 2 m/s 719 mmHg 60%
08:00 +25°C° 0 mm 3 m/s 719 mmHg 52%
09:00 +27°C° 0 mm 3 m/s 719 mmHg 44%
10:00 +29°C° 0 mm 4 m/s 719 mmHg 38%
11:00 +30°C° 0 mm 4 m/s 719 mmHg 32%
12:00 +33°C° 0 mm 4 m/s 719 mmHg 26%
13:00 +33°C° 0 mm 4 m/s 718 mmHg 23%
14:00 +33°C° 0 mm 5 m/s 718 mmHg 21%
15:00 +34°C° 0 mm 5 m/s 718 mmHg 18%
16:00 +33°C° 0 mm 5 m/s 717 mmHg 19%
17:00 +32°C° 0 mm 5 m/s 717 mmHg 20%
18:00 +32°C° 0 mm 5 m/s 716 mmHg 21%
19:00 +28°C° 0 mm 4 m/s 717 mmHg 27%
20:00 +25°C° 0 mm 3 m/s 717 mmHg 32%
21:00 +23°C° 0 mm 2 m/s 717 mmHg 38%
22:00 +22°C° 0 mm 1 m/s 717 mmHg 45%
23:00 +21°C° 0 mm 1 m/s 717 mmHg 51%

17 Iunie, Joi

Timp Temperatura Precipitaţii Vânt Presiune Umiditate
00:00 +20°C° 0 mm 1 m/s 717 mmHg 58%
01:00 +19°C° 0.1 mm 1 m/s 717 mmHg 63%
02:00 +18°C° 0.1 mm 1 m/s 717 mmHg 69%
03:00 +15°C° 0.1 mm 0 m/s 717 mmHg 74%
04:00 +16°C° 0 mm 1 m/s 717 mmHg 76%
05:00 +16°C° 0 mm 1 m/s 717 mmHg 78%
06:00 +18°C° 0 mm 1 m/s 718 mmHg 79%
07:00 +18°C° 0 mm 2 m/s 718 mmHg 73%
08:00 +20°C° 0 mm 2 m/s 718 mmHg 67%
09:00 +21°C° 0 mm 3 m/s 718 mmHg 61%
10:00 +22°C° 0 mm 3 m/s 718 mmHg 57%
11:00 +23°C° 0 mm 4 m/s 718 mmHg 52%
12:00 +25°C° 0 mm 5 m/s 719 mmHg 48%
13:00 +25°C° 0 mm 5 m/s 718 mmHg 47%
14:00 +25°C° 0 mm 5 m/s 718 mmHg 47%
15:00 +25°C° 0 mm 5 m/s 718 mmHg 46%
16:00 +23°C° 0 mm 4 m/s 718 mmHg 50%
17:00 +23°C° 0 mm 4 m/s 718 mmHg 54%
18:00 +22°C° 0 mm 3 m/s 718 mmHg 58%
19:00 +20°C° 0 mm 2 m/s 718 mmHg 68%
20:00 +18°C° 0 mm 2 m/s 719 mmHg 77%
21:00 +16°C° 0 mm 1 m/s 719 mmHg 86%
22:00 +16°C° 0 mm 1 m/s 719 mmHg 87%
23:00 +16°C° 0 mm 1 m/s 719 mmHg 88%

18 Iunie, Vineri

Timp Temperatura Precipitaţii Vânt Presiune Umiditate
00:00 +15°C° 0 mm 1 m/s 719 mmHg 89%
01:00 +14°C° 0 mm 0 m/s 719 mmHg 90%
02:00 +14°C° 0 mm 0 m/s 719 mmHg 91%
03:00 +13°C° 0 mm 0 m/s 719 mmHg 91%
04:00 +14°C° 0 mm 0 m/s 719 mmHg 90%
05:00 +15°C° 0 mm 1 m/s 719 mmHg 88%
06:00 +15°C° 0 mm 1 m/s 719 mmHg 86%
07:00 +18°C° 0.1 mm 1 m/s 719 mmHg 79%
08:00 +18°C° 0.1 mm 2 m/s 720 mmHg 71%
09:00 +20°C° 0.1 mm 2 m/s 720 mmHg 64%
10:00 +21°C° 0.1 mm 3 m/s 720 mmHg 60%
11:00 +21°C° 0.1 mm 3 m/s 720 mmHg 56%
12:00 +22°C° 0.1 mm 3 m/s 720 mmHg 52%
13:00 +24°C° 0 mm 3 m/s 720 mmHg 48%
14:00 +25°C° 0 mm 4 m/s 719 mmHg 45%
15:00 +26°C° 0 mm 4 m/s 719 mmHg 41%
16:00 +25°C° 0 mm 3 m/s 719 mmHg 40%
17:00 +25°C° 0 mm 3 m/s 719 mmHg 39%
18:00 +24°C° 0 mm 2 m/s 719 mmHg 39%
19:00 +21°C° 0 mm 2 m/s 719 mmHg 44%
20:00 +21°C° 0 mm 1 m/s 719 mmHg 49%
21:00 +19°C° 0 mm 1 m/s 719 mmHg 55%
22:00 +18°C° 0 mm 1 m/s 719 mmHg 56%
23:00 +18°C° 0 mm 1 m/s 719 mmHg 58%
Arată mai mult

Formular de consimțământ

Meteoprog și furnizorii noștri de servicii pot stoca și accesa date personale, precum cookies, identificatori de dispozitiv sau alte tehnologii similare pe dispozitivul dumneavoastră și procesa astfel de date pentru a personaliza conținutul și reclamele, dar și pentru a oferi caracteristici de social media și pentru a analiza traficul.

  • Stocarea și/sau accesarea informațiilor pe dispozitivul dumneavoastră

    Cookies, identificatori de dispozitiv sau alte informații pot fi stocate sau accesate pe dispozitiv în scopurile indicate mai sus.

  • Reclame și conținut personalizat, evaluarea reclamelor și a conținutului, informații despre audiențe și dezvoltarea produselor

    Reclamele și conținutul pot fi personalizate pe baza unui profil. Pot fi adăugate date suplimentare pentru a personaliza mai bine reclamele și conținutul. Performanța reclamelor și conținutului poate fi măsurată. Pot fi obținute informații despre utilizatorii care au văzut reclamele și conținutul. Aceste date pot fi utilizate pentru a dezvolta sau îmbunătăți experiența utilizatorilor, sistemele și software-ul.

Dând clic pe ‘Sunt de acord’, permiteți utilizarea cookie-urilor menționate, a identificatorilor de dispozitiv, balizelor web sau altor tehnologii similare. Setările pot fi modificate din browser-ul dispozitivului dumneavoastră.

În anumite scopuri, interesele legitime pot prima asupra consimțământului. Puteți citi mai multe informații în acest sens în Politica privind Confidențialitatea Datelor și Cookie.